Notices

What's New in latest Release from April 7th, 2021:

- Updated Glossary, including Speed of Maximum Gust, and Total Hourly Precipitation

- Updated national and regional climate services offices contacts and prices information

- Addition of station inventory lists for 1981-2010, 1971-2000, and 1961-1990 Normals.

If you haven't already, please take our survey and provide feedback about our website: https://eccc.sondage-survey.ca/f/LanguageSelection.aspx?s=442ca660-fcf1-47c0-95a9-59707d6fd709

Hourly Data Report for April 07, 2021

CORNER BROOK
NEWFOUNDLAND
Current Station Operator: ECCC - MSC

48°56'00.000" N
57°55'00.000" W
151.80 m
8401298
71973
WKB

Download Data

Hourly Data (April 2021)
Hourly Data Report for April 7, 2021
TIME
LST
Temp Definition
°C
Dew Point Definition
°C
Rel Hum Definition
%
Precip. Amount Definition
mm

Wind Dir Definition
10's deg

Wind Spd Definition
km/h
Visibility Definition
km
Stn Press Definition
kPa
Hmdx Definition


Wind Chill Definition


Weather Definition


00:30 2.6 1.8 95 0.0 7 27   99.47     LegendNANA
01:30 2.7 1.8 94 0.8 7 34   99.46     LegendNANA
02:30 2.5 1.6 94 0.0 8 21   99.48     LegendNANA
03:30 2.4 1.4 93 0.0 9 17   99.52     LegendNANA
04:30 2.2 1.3 93 0.0 8 10   99.53     LegendNANA
05:30 2.4 1.4 93 0.0 6 5   99.58     LegendNANA
06:30 2.2 1.3 93 0.0 6 11   99.67     LegendNANA
07:30 2.5 1.5 93 0.0 6 12   99.71     LegendNANA
08:30 2.9 1.9 93 0.0 5 12   99.74     LegendNANA
09:30 4.0 3.0 93 0.0 6 7   99.76     LegendNANA
10:30 6.3 4.7 90 0.0 6 4   99.78     LegendNANA
11:30 4.8 3.5 92 0.0 5 13   99.80     LegendNANA
12:30 5.6 4.4 92 0.0 7 19   99.79     LegendNANA
13:30 6.0 4.7 91 0.0 6 20   99.82     LegendNANA
14:30 5.9 4.6 92 0.0 7 23   99.81     LegendNANA
15:30 7.2 5.2 87 0.0 6 20   99.81     LegendNANA
16:30 5.8 4.1 89 0.0 5 21   99.82     LegendNANA
17:30 5.0 3.7 91 0.0 6 17   99.84     LegendNANA
18:30 4.5 3.3 92 0.0 7 18   99.90     LegendNANA
19:30 4.0 2.9 93 0.0 7 22   99.99     LegendNANA
20:30 4.0 3.0 93 0.0 8 16   100.02     LegendNANA
21:30 4.1 3.0 93 0.0 6 17   100.04     LegendNANA
22:30 3.2 2.1 92 0.0 7 25   100.05     LegendNANA
23:30 2.9 1.7 92 0.0 6 20   100.08     LegendNANA

Notes on Data Quality.

Legend

  • E = Estimated
  • M = Missing
  • NA = Not Available*
  • [empty] = Indicates an unobserved value
Date modified: